Home > Weather > Bautzen > Past weeks

Flag for Germany Weather for the Past 2 Weeks in Bautzen, Saxony, Germany

Now
45 °F

Light rain. Partly sunny.


Feels Like: 40 °F
Forecast: 43 / 63 °F
Wind: 8 mph from North

Location: Dresden-Klotzsche

Current Time: May 4, 2016 at 4:21:03 PM

Latest Report: May 4, 2016 at 3:20 PM


Visibility: 6 mi

Pressure: 30.33 "Hg

Humidity: 93%

Dew Point: 43 °F

Location of BautzenLocation

Historic Weather in Bautzen — Graph

°F

Bautzen Temperature Yesterday

Maximum temperature yesterday: 63 °F (at 2:50 PM)
Minimum temperature yesterday: 39 °F (at 3:20 AM)
Average temperature yesterday: 52 °F

High & Low Weather Summary for the Past Weeks

 TemperatureHumidityPressure
High64 °F (Apr 30, 3:20 PM)100% (May 3, 4:20 AM)30.39 "Hg (May 3, 4:20 AM)
Low32 °F (Apr 24, 6:20 AM)25% (Apr 30, 2:20 PM)29.47 "Hg (Apr 26, 7:50 AM)
Average46 °F65%30.00 "Hg
* Reported Apr 19 3:20 PM — May 4 3:20 PM, Bautzen, Weather by CustomWeather, © 2016

Note: Actual official high and low records may vary slightly from our data, if they occured in-between our weather recording intervals... More about our weather records

Advertising

Bautzen Weather History for the Previous 24 Hours

Scroll right to see more
 ConditionsComfort  
Time TempWeatherWind HumidityBarometerVisibility
3:20 PM
Wed, May 4
45 °FLight rain. Partly sunny.8 mph93%30.33 "Hg6 mi
2:50 PM46 °FLight rain. Broken clouds.9 mph87%30.33 "HgN/A
2:20 PM46 °FLight rain. Broken clouds.9 mph87%30.33 "Hg4 mi
1:20 PM45 °FLight rain. Mostly cloudy.9 mph93%30.33 "Hg4 mi
12:50 PM45 °FLight rain. Mostly cloudy.10 mph93%30.33 "Hg4 mi
12:20 PM45 °FLight rain. Partly sunny.10 mph93%30.33 "Hg5 mi
11:20 AM45 °FLight rain. Broken clouds.9 mph87%30.33 "HgN/A
10:50 AM45 °FLight rain. Partly sunny.10 mph87%30.30 "HgN/A
9:50 AM43 °FLight rain. Partly sunny.12 mph93%30.30 "HgN/A
9:20 AM43 °FLight rain. Partly sunny.14 mph87%30.30 "HgN/A
8:20 AM43 °FPartly sunny.13 mph93%30.27 "HgN/A
7:20 AM43 °FPartly sunny.10 mph93%30.27 "HgN/A
6:20 AM45 °FLight rain. Passing clouds.12 mph87%30.24 "HgN/A
5:50 AM45 °FLow clouds.12 mph87%30.24 "HgN/A
5:20 AM45 °FLight rain. Mostly cloudy.13 mph87%30.24 "HgN/A
4:50 AM45 °FMostly cloudy.13 mph87%30.21 "HgN/A
4:20 AM46 °FMostly cloudy.15 mph87%30.21 "HgN/A
3:50 AM46 °FMostly cloudy.15 mph82%30.21 "HgN/A
3:20 AM46 °FOvercast.13 mph76%30.21 "HgN/A
2:50 AM46 °FOvercast.15 mph76%30.18 "HgN/A
2:20 AM46 °FMostly cloudy.9 mph76%30.18 "HgN/A
1:50 AM46 °FOvercast.13 mph76%30.18 "HgN/A
12:50 AM48 °FOvercast.12 mph71%30.18 "HgN/A
12:20 AM48 °FOvercast.13 mph71%30.18 "HgN/A
11:50 PM
Tue, May 3
48 °FMostly cloudy.13 mph71%30.18 "HgN/A
11:20 PM48 °FMostly cloudy.12 mph71%30.15 "HgN/A
10:20 PM48 °FOvercast.14 mph76%30.15 "HgN/A
9:50 PM50 °FOvercast.10 mph76%30.12 "HgN/A
9:20 PM50 °FPartly sunny.12 mph76%30.12 "HgN/A
8:50 PM52 °FPartly sunny.16 mph72%30.09 "HgN/A
8:20 PM54 °FPartly sunny.20 mph67%30.07 "HgN/A
7:50 PM55 °FPassing clouds.16 mph67%30.04 "HgN/A
7:20 PM55 °FPartly sunny.15 mph77%30.04 "HgN/A
6:50 PM59 °FPassing clouds.12 mph63%30.01 "HgN/A
6:20 PM61 °FSunny.9 mph45%30.01 "Hg10 mi
5:50 PM63 °FPassing clouds.10 mph45%30.01 "HgN/A
5:20 PM63 °FSunny.9 mph45%30.01 "Hg10 mi
4:50 PM61 °FPassing clouds.10 mph48%30.01 "HgN/A
4:20 PM63 °FPassing clouds.7 mph42%30.01 "HgN/A
Weather by CustomWeather, © 2016

See weather overviewHow to use our weather pages